,,Stat6,,Stat2,,Stat8,,Stat9,,Stat10,,Wind1,,Wind1,
time,status,PA1M_AVG,status,PR1M_SUM,status,RH1M_AVG,status,SR1M_AVG,status,TA1M_AVG,status,W1dAve1m,status,W1sAve1m,
2004-07-02, 00:00:00,VALID,918.485,VALID,0,VALID,98.4578,VALID,-0.0169808,VALID,18.987,VALID,10,VALID,0.962426,
2004-07-02, 00:01:00,VALID,918.475,VALID,0,VALID,98.5328,VALID,0,VALID,18.9766,VALID,18,VALID,0.742914,
2004-07-02, 00:02:00,VALID,918.468,VALID,0.2,VALID,98.6371,VALID,0,VALID,18.9808,VALID,21,VALID,0.631944,
2004-07-02, 00:03:00,VALID,918.477,VALID,0,VALID,98.6969,VALID,-0.0169808,VALID,18.9679,VALID,21,VALID,0.717685,
2004-07-02, 00:04:00,VALID,918.477,VALID,0,VALID,98.7604,VALID,0,VALID,18.945,VALID,20,VALID,0.303597,
2004-07-02, 00:05:00,VALID,918.483,VALID,0,VALID,98.7757,VALID,0,VALID,18.9319,VALID,20,VALID,0.0122514,
2004-07-02, 00:06:00,VALID,918.495,VALID,0,VALID,98.763,VALID,-0.0679233,VALID,18.9201,VALID,35,VALID,0.388393,
2004-07-02, 00:07:00,VALID,918.505,VALID,0,VALID,98.8723,VALID,-0.152827,VALID,18.9243,VALID,32,VALID,0.431686,
2004-07-02, 00:08:00,VALID,918.51,VALID,0,VALID,99.0224,VALID,-0.118866,VALID,18.9303,VALID,32,VALID,0.391493,
2004-07-02, 00:09:00,VALID,918.517,VALID,0,VALID,99.086,VALID,-0.101885,VALID,18.9333,VALID,5,VALID,0.622396,
2004-07-02, 00:10:00,VALID,918.511,VALID,0,VALID,99.1101,VALID,-0.101885,VALID,18.9268,VALID,316,VALID,0.872275,
2004-07-02, 00:11:00,VALID,918.528,VALID,0,VALID,99.147,VALID,-0.118866,VALID,18.9072,VALID,349,VALID,0.353423,
2004-07-02, 00:12:01,VALID,918.549,VALID,0,VALID,99.2297,VALID,-0.101885,VALID,18.8975,VALID,50,VALID,0.119606,
2004-07-02, 00:13:00,VALID,918.537,VALID,0,VALID,99.3047,VALID,-0.101885,VALID,18.9174,VALID,263,VALID,0.765997,
2004-07-02, 00:14:01,VALID,918.534,VALID,0,VALID,99.587,VALID,-0.101885,VALID,18.94,VALID,37,VALID,1.24442,
2004-07-02, 00:15:01,VALID,918.554,VALID,0,VALID,99.6455,VALID,-0.101885,VALID,18.9628,VALID,18,VALID,0.889583,
2004-07-02, 00:16:00,VALID,918.542,VALID,0,VALID,99.7014,VALID,-0.101885,VALID,18.9785,VALID,21,VALID,0.995808,
2004-07-02, 00:17:00,VALID,918.535,VALID,0,VALID,99.7739,VALID,-0.101885,VALID,18.9745,VALID,9,VALID,0.682351,
2004-07-02, 00:18:01,VALID,918.539,VALID,0,VALID,99.7892,VALID,-0.152827,VALID,18.9981,VALID,34,VALID,0.817042,
2004-07-02, 00:19:00,VALID,918.519,VALID,0,VALID,99.8578,VALID,-0.118866,VALID,19.0043,VALID,21,VALID,1.01563,
2004-07-02, 00:20:00,VALID,918.5,VALID,0,VALID,99.9112,VALID,-0.101885,VALID,19.0175,VALID,17,VALID,1.15007,
2004-07-02, 00:21:01,VALID,918.424,VALID,0,VALID,99.9842,VALID,-0.0849042,VALID,19.0361,VALID,13,VALID,2.34286,
2004-07-02, 00:22:01,VALID,918.452,VALID,0,VALID,100,VALID,0,VALID,19.0513,VALID,6,VALID,1.69658,
2004-07-02, 00:23:00,VALID,918.446,VALID,0,VALID,100,VALID,0,VALID,19.0382,VALID,22,VALID,1.631,
2004-07-02, 00:24:00,VALID,918.428,VALID,0,VALID,100,VALID,-0.0169808,VALID,19.0511,VALID,12,VALID,2.07598,
2004-07-02, 00:25:00,VALID,918.404,VALID,0,VALID,100,VALID,0,VALID,19.0511,VALID,16,VALID,1.78546,
2004-07-02, 00:26:00,VALID,918.384,VALID,0,VALID,100,VALID,0,VALID,19.0674,VALID,15,VALID,1.63853,
2004-07-02, 00:27:00,VALID,918.369,VALID,0,VALID,100,VALID,-0.0169808,VALID,19.0642,VALID,21,VALID,2.26599,
2004-07-02, 00:28:01,VALID,918.362,VALID,0,VALID,100,VALID,0,VALID,19.061,VALID,17,VALID,1.7945,
2004-07-02, 00:29:00,VALID,918.352,VALID,0,VALID,100,VALID,0,VALID,19.0806,VALID,27,VALID,1.5564,
2004-07-02, 00:30:01,VALID,918.332,VALID,0,VALID,100,VALID,0.0169808,VALID,19.0737,VALID,20,VALID,1.20778,
2004-07-02, 00:31:01,VALID,918.295,VALID,0,VALID,100,VALID,0,VALID,19.0672,VALID,19,VALID,1.00286,
2004-07-02, 00:32:00,VALID,918.222,VALID,0,VALID,100,VALID,0,VALID,19.0674,VALID,13,VALID,2.3192,
2004-07-02, 00:33:00,VALID,918.172,VALID,0,VALID,100,VALID,0,VALID,19.0513,VALID,10,VALID,1.93848,
2004-07-02, 00:34:00,VALID,918.128,VALID,0,VALID,100,VALID,0.0169808,VALID,19.0642,VALID,15,VALID,2.90352,
2004-07-02, 00:35:00,VALID,918.194,VALID,0,VALID,100,VALID,0.0169808,VALID,19.0449,VALID,327,VALID,1.38139,
2004-07-02, 00:36:00,VALID,918.273,VALID,0,VALID,100,VALID,0,VALID,19.0382,VALID,5,VALID,1.2681,
2004-07-02, 00:37:00,VALID,918.326,VALID,0,VALID,100,VALID,0.0169808,VALID,19.0476,VALID,12,VALID,1.36719,
2004-07-02, 00:38:01,VALID,918.364,VALID,0,VALID,100,VALID,0.0509425,VALID,19.0672,VALID,15,VALID,1.15742,
2004-07-02, 00:39:00,VALID,918.396,VALID,0,VALID,100,VALID,0.0169808,VALID,19.0898,VALID,10,VALID,0.784201,
2004-07-02, 00:40:00,VALID,918.436,VALID,0,VALID,100,VALID,0,VALID,19.1062,VALID,20,VALID,0.635603,
2004-07-02, 00:41:01,VALID,918.423,VALID,0,VALID,100,VALID,0,VALID,19.1062,VALID,28,VALID,1.04227,
2004-07-02, 00:42:00,VALID,918.421,VALID,0,VALID,100,VALID,0,VALID,19.1057,VALID,24,VALID,1.34084,
2004-07-02, 00:43:00,VALID,918.398,VALID,0,VALID,100,VALID,0,VALID,19.1223,VALID,18,VALID,1.67882,
2004-07-02, 00:44:00,VALID,918.384,VALID,0,VALID,100,VALID,0,VALID,19.1124,VALID,22,VALID,1.69442,
2004-07-02, 00:45:00,VALID,918.371,VALID,0,VALID,100,VALID,0.0169808,VALID,19.1223,VALID,23,VALID,1.10232,
2004-07-02, 00:46:00,VALID,918.324,VALID,0,VALID,100,VALID,0,VALID,19.1193,VALID,2,VALID,0.758152,
2004-07-02, 00:47:00,VALID,918.268,VALID,0,VALID,100,VALID,0,VALID,19.1025,VALID,30,VALID,0.814062,
2004-07-02, 00:48:00,VALID,918.235,VALID,0,VALID,100,VALID,0.0169808,VALID,19.103,VALID,32,VALID,1.10738,
2004-07-02, 00:49:01,VALID,918.186,VALID,0,VALID,100,VALID,0.0339617,VALID,19.1092,VALID,15,VALID,2.19211,
2004-07-02, 00:50:01,VALID,918.162,VALID,0,VALID,100,VALID,0,VALID,19.0995,VALID,16,VALID,1.60403,
2004-07-02, 00:51:00,VALID,918.106,VALID,0,VALID,100,VALID,-0.0339617,VALID,19.0898,VALID,22,VALID,1.37591,
2004-07-02, 00:52:00,VALID,918.1,VALID,0,VALID,100,VALID,-0.0849042,VALID,19.1238,VALID,12,VALID,0.932958,
2004-07-02, 00:53:01,VALID,918.089,VALID,0,VALID,100,VALID,-0.118866,VALID,19.1305,VALID,18,VALID,0.832126,
2004-07-02, 00:54:00,VALID,918.091,VALID,0,VALID,100,VALID,-0.101885,VALID,19.1272,VALID,21,VALID,1.60302,
2004-07-02, 00:55:01,VALID,918.038,VALID,0,VALID,100,VALID,-0.101885,VALID,19.1205,VALID,17,VALID,1.38209,
2004-07-02, 00:56:01,VALID,917.985,VALID,0,VALID,100,VALID,-0.101885,VALID,19.1173,VALID,23,VALID,1.4974,
2004-07-02, 00:57:00,VALID,917.941,VALID,0,VALID,100,VALID,-0.101885,VALID,19.1146,VALID,20,VALID,1.10865,
2004-07-02, 00:58:00,VALID,917.888,VALID,0,VALID,100,VALID,-0.118866,VALID,19.1275,VALID,22,VALID,2.34821,
2004-07-02, 00:59:00,VALID,917.871,VALID,0,VALID,100,VALID,-0.101885,VALID,19.1335,VALID,26,VALID,1.63434,
2004-07-02, 01:00:00,VALID,917.864,VALID,0,VALID,100,VALID,-0.101885,VALID,19.1521,VALID,28,VALID,1.22461,
2004-07-02, 01:01:01,VALID,917.825,VALID,0,VALID,100,VALID,-0.101885,VALID,19.1625,VALID,20,VALID,1.84271,
2004-07-02, 01:02:00,VALID,917.792,VALID,0,VALID,100,VALID,-0.101885,VALID,19.1789,VALID,18,VALID,0.977095,
2004-07-02, 01:03:01,VALID,917.754,VALID,0,VALID,100,VALID,-0.101885,VALID,19.1749,VALID,20,VALID,1.36756,
2004-07-02, 01:04:01,VALID,917.704,VALID,0,VALID,100,VALID,-0.101885,VALID,19.1821,VALID,23,VALID,1.1637,
2004-07-02, 01:05:01,VALID,917.662,VALID,0,VALID,100,VALID,-0.0849042,VALID,19.1749,VALID,18,VALID,1.60792,
2004-07-02, 01:06:00,VALID,917.65,VALID,0,VALID,100,VALID,-0.0679233,VALID,19.1586,VALID,24,VALID,1.20585,
2004-07-02, 01:07:00,VALID,917.636,VALID,0,VALID,100,VALID,0,VALID,19.1578,VALID,17,VALID,1.05413,
2004-07-02, 01:08:00,VALID,917.605,VALID,0,VALID,100,VALID,0.0339617,VALID,19.1377,VALID,11,VALID,0.481898,
2004-07-02, 01:09:01,VALID,917.58,VALID,0,VALID,100,VALID,0,VALID,19.1419,VALID,7,VALID,0.370617,
2004-07-02, 01:10:00,VALID,917.558,VALID,0,VALID,100,VALID,0.0339617,VALID,19.138,VALID,11,VALID,0.2234,
2004-07-02, 01:11:01,VALID,917.527,VALID,0,VALID,100,VALID,0.0169808,VALID,19.1484,VALID,22,VALID,0.621911,
2004-07-02, 01:12:01,VALID,917.487,VALID,0,VALID,100,VALID,0,VALID,19.1412,VALID,21,VALID,0.639101,
2004-07-02, 01:13:01,VALID,917.469,VALID,0,VALID,100,VALID,0.0169808,VALID,19.1509,VALID,17,VALID,0.815048,
2004-07-02, 01:14:01,VALID,917.469,VALID,0,VALID,100,VALID,0,VALID,19.1581,VALID,359,VALID,0.86795,
2004-07-02, 01:15:00,VALID,917.457,VALID,0,VALID,100,VALID,0,VALID,19.1323,VALID,6,VALID,0.858073,
2004-07-02, 01:16:00,VALID,917.428,VALID,0,VALID,100,VALID,-0.0339617,VALID,19.1161,VALID,19,VALID,0.915661,
2004-07-02, 01:17:00,VALID,917.401,VALID,0,VALID,100,VALID,0,VALID,19.1119,VALID,12,VALID,1.00446,
2004-07-02, 01:18:01,VALID,917.386,VALID,0,VALID,100,VALID,0,VALID,19.1189,VALID,23,VALID,0.964472,
2004-07-02, 01:19:00,VALID,917.377,VALID,0,VALID,100,VALID,0.0339617,VALID,19.1154,VALID,12,VALID,0.993351,
2004-07-02, 01:20:01,VALID,917.381,VALID,0,VALID,100,VALID,0.0339617,VALID,19.1087,VALID,13,VALID,0.287997,
2004-07-02, 01:21:01,VALID,917.368,VALID,0,VALID,100,VALID,0.0339617,VALID,19.1126,VALID,31,VALID,1.14808,
2004-07-02, 01:22:01,VALID,917.352,VALID,0,VALID,100,VALID,0.0339617,VALID,19.1059,VALID,8,VALID,0.905134,
2004-07-02, 01:23:01,VALID,917.325,VALID,0,VALID,100,VALID,0,VALID,19.0958,VALID,13,VALID,0.979353,
2004-07-02, 01:24:01,VALID,917.298,VALID,0,VALID,100,VALID,0,VALID,19.1258,VALID,4,VALID,0.331936,
2004-07-02, 01:25:00,VALID,917.264,VALID,0,VALID,100,VALID,0.0169808,VALID,19.1156,VALID,2,VALID,0.269245,
2004-07-02, 01:26:01,VALID,917.258,VALID,0,VALID,100,VALID,-0.0169808,VALID,19.1099,VALID,7,VALID,0.347756,
2004-07-02, 01:27:00,VALID,917.242,VALID,0,VALID,100,VALID,0.0169808,VALID,19.0863,VALID,328,VALID,0.244731,
2004-07-02, 01:28:00,VALID,917.223,VALID,0,VALID,100,VALID,-0.0169808,VALID,19.0965,VALID,321,VALID,0.128018,
2004-07-02, 01:29:01,VALID,917.205,VALID,0,VALID,100,VALID,0,VALID,19.0866,VALID,321,VALID,0.0569196,
2004-07-02, 01:30:00,VALID,917.214,VALID,0,VALID,100,VALID,0.0339617,VALID,19.1126,VALID,326,VALID,0.313453,
2004-07-02, 01:31:00,VALID,917.214,VALID,0,VALID,100,VALID,0,VALID,19.135,VALID,327,VALID,0.247159,
2004-07-02, 01:32:01,VALID,917.206,VALID,0,VALID,100,VALID,0,VALID,19.141,VALID,341,VALID,0.41441,
2004-07-02, 01:33:00,VALID,917.201,VALID,0,VALID,100,VALID,0.0169808,VALID,19.1539,VALID,4,VALID,0.767113,
2004-07-02, 01:34:01,VALID,917.199,VALID,0,VALID,100,VALID,0,VALID,19.1737,VALID,23,VALID,1.05833,
2004-07-02, 01:35:00,VALID,917.19,VALID,0,VALID,100,VALID,0,VALID,19.1673,VALID,31,VALID,1.23993,
2004-07-02, 01:36:00,VALID,917.191,VALID,0,VALID,100,VALID,0,VALID,19.1767,VALID,17,VALID,1.50781,
2004-07-02, 01:37:00,VALID,917.141,VALID,0,VALID,100,VALID,-0.0339617,VALID,19.1775,VALID,16,VALID,1.75355,
2004-07-02, 01:38:00,VALID,917.131,VALID,0,VALID,100,VALID,0,VALID,19.1484,VALID,16,VALID,1.84947,
2004-07-02, 01:39:00,VALID,917.11,VALID,0,VALID,100,VALID,0,VALID,19.1456,VALID,19,VALID,1.14789,
2004-07-02, 01:40:00,VALID,917.089,VALID,0,VALID,100,VALID,-0.0339617,VALID,19.1097,VALID,354,VALID,1.68872,
2004-07-02, 01:41:00,VALID,917.079,VALID,0,VALID,100,VALID,-0.0339617,VALID,19.0972,VALID,1,VALID,1.93638,
2004-07-02, 01:42:01,VALID,917.082,VALID,0,VALID,100,VALID,0,VALID,19.0776,VALID,7,VALID,2.33301,
2004-07-02, 01:43:00,VALID,917.086,VALID,0,VALID,100,VALID,-0.0339617,VALID,19.058,VALID,345,VALID,1.74434,
2004-07-02, 01:44:00,VALID,917.095,VALID,0,VALID,100,VALID,0,VALID,19.019,VALID,350,VALID,1.45412,
2004-07-02, 01:45:00,VALID,917.11,VALID,0,VALID,100,VALID,0,VALID,19.0322,VALID,6,VALID,1.92664,
2004-07-02, 01:46:01,VALID,917.107,VALID,0,VALID,100,VALID,-0.0169808,VALID,19.0322,VALID,360,VALID,2.01944,
2004-07-02, 01:47:00,VALID,917.091,VALID,0,VALID,100,VALID,-0.0849042,VALID,19.0255,VALID,9,VALID,1.77782,
2004-07-02, 01:48:01,VALID,917.078,VALID,0,VALID,100,VALID,0,VALID,19.0386,VALID,15,VALID,2.13262,
2004-07-02, 01:49:00,VALID,917.077,VALID,0,VALID,100,VALID,-0.0339617,VALID,19.0359,VALID,14,VALID,1.86528,
2004-07-02, 01:50:00,VALID,917.108,VALID,0,VALID,100,VALID,0,VALID,19.0354,VALID,16,VALID,1.62054,
2004-07-02, 01:51:01,VALID,917.13,VALID,0,VALID,100,VALID,-0.0509425,VALID,19.0324,VALID,328,VALID,1.21771,
2004-07-02, 01:52:01,VALID,917.144,VALID,0,VALID,100,VALID,-0.0339617,VALID,19.016,VALID,6,VALID,1.43583,
2004-07-02, 01:53:01,VALID,917.181,VALID,0,VALID,100,VALID,-0.0339617,VALID,19.023,VALID,355,VALID,1.81793,
2004-07-02, 01:54:01,VALID,917.219,VALID,0,VALID,100,VALID,-0.0509425,VALID,19.0193,VALID,345,VALID,0.635603,
2004-07-02, 01:55:01,VALID,917.21,VALID,0,VALID,100,VALID,-0.0339617,VALID,19.0324,VALID,3,VALID,1.49115,
2004-07-02, 01:56:01,VALID,917.212,VALID,0,VALID,100,VALID,0,VALID,19.0287,VALID,16,VALID,1.43333,
2004-07-02, 01:57:01,VALID,917.211,VALID,0,VALID,100,VALID,-0.0169808,VALID,19.0382,VALID,10,VALID,1.0169,
2004-07-02, 01:58:01,VALID,917.218,VALID,0,VALID,100,VALID,-0.0339617,VALID,19.0523,VALID,44,VALID,0.899891,
2004-07-02, 01:59:01,VALID,917.192,VALID,0,VALID,100,VALID,-0.0849042,VALID,19.049,VALID,13,VALID,0.524581,
2004-07-02, 02:00:01,VALID,917.168,VALID,0,VALID,100,VALID,-0.0509425,VALID,19.0456,VALID,13,VALID,0.391715,
2004-07-02, 02:01:01,VALID,917.146,VALID,0,VALID,100,VALID,0,VALID,19.0426,VALID,13,VALID,0.720656,
2004-07-02, 02:02:00,VALID,917.149,VALID,0,VALID,100,VALID,0,VALID,19.0394,VALID,12,VALID,0.506284,
2004-07-02, 02:03:01,VALID,917.151,VALID,0,VALID,100,VALID,-0.0509425,VALID,19.02,VALID,4,VALID,0.675145,
2004-07-02, 02:04:01,VALID,917.155,VALID,0,VALID,100,VALID,-0.0509425,VALID,19.013,VALID,5,VALID,0.700335,
2004-07-02, 02:05:01,VALID,917.148,VALID,0,VALID,100,VALID,-0.0849042,VALID,19.0133,VALID,5,VALID,0.784489,
2004-07-02, 02:06:01,VALID,917.118,VALID,0,VALID,100,VALID,-0.0509425,VALID,19.0036,VALID,17,VALID,1.06454,
2004-07-02, 02:07:01,VALID,917.088,VALID,0,VALID,100,VALID,-0.0169808,VALID,19.0098,VALID,17,VALID,1.09077,
2004-07-02, 02:08:01,VALID,917.083,VALID,0,VALID,100,VALID,0,VALID,18.9997,VALID,16,VALID,1.20991,
2004-07-02, 02:09:01,VALID,917.064,VALID,0,VALID,100,VALID,0,VALID,18.9833,VALID,4,VALID,0.965039,
2004-07-02, 02:10:01,VALID,917.058,VALID,0,VALID,100,VALID,-0.0509425,VALID,18.9743,VALID,354,VALID,0.981001,
2004-07-02, 02:11:00,VALID,917.077,VALID,0,VALID,100,VALID,-0.0339617,VALID,18.9641,VALID,15,VALID,0.840625,
2004-07-02, 02:12:01,VALID,917.084,VALID,0,VALID,100,VALID,0,VALID,18.9612,VALID,357,VALID,1.06269,
2004-07-02, 02:13:01,VALID,917.095,VALID,0,VALID,100,VALID,0,VALID,18.945,VALID,360,VALID,1.36973,
2004-07-02, 02:14:01,VALID,917.093,VALID,0,VALID,100,VALID,0,VALID,18.9284,VALID,10,VALID,1.50053,
2004-07-02, 02:15:01,VALID,917.096,VALID,0,VALID,100,VALID,-0.0339617,VALID,18.9328,VALID,356,VALID,1.21387,
2004-07-02, 02:16:01,VALID,917.122,VALID,0,VALID,100,VALID,-0.0509425,VALID,18.9095,VALID,9,VALID,1.30373,
2004-07-02, 02:17:00,VALID,917.107,VALID,0,VALID,100,VALID,-0.0509425,VALID,18.9162,VALID,14,VALID,1.58249,
2004-07-02, 02:18:01,VALID,917.105,VALID,0,VALID,100,VALID,-0.0339617,VALID,18.9291,VALID,4,VALID,1.15402,
2004-07-02, 02:19:01,VALID,917.101,VALID,0,VALID,100,VALID,-0.0339617,VALID,18.9065,VALID,333,VALID,0.463246,
2004-07-02, 02:20:01,VALID,917.088,VALID,0,VALID,100,VALID,-0.0509425,VALID,18.9264,VALID,254,VALID,0.441497,
2004-07-02, 02:21:00,VALID,917.054,VALID,0,VALID,100,VALID,0,VALID,18.939,VALID,234,VALID,0.267857,
2004-07-02, 02:22:01,VALID,917.016,VALID,0,VALID,100,VALID,-0.0169808,VALID,18.9522,VALID,90,VALID,0.689648,
2004-07-02, 02:23:01,VALID,917.017,VALID,0,VALID,100,VALID,-0.0169808,VALID,18.9547,VALID,50,VALID,0.181686,
2004-07-02, 02:24:01,VALID,917.017,VALID,0,VALID,100,VALID,-0.0509425,VALID,18.9584,VALID,41,VALID,0.311012,
2004-07-02, 02:25:01,VALID,916.969,VALID,0,VALID,100,VALID,-0.0509425,VALID,18.9651,VALID,17,VALID,0.692294,
2004-07-02, 02:26:01,VALID,916.954,VALID,0,VALID,100,VALID,-0.0509425,VALID,18.9683,VALID,11,VALID,1.05134,
2004-07-02, 02:27:01,VALID,916.93,VALID,0,VALID,100,VALID,-0.0509425,VALID,18.9591,VALID,329,VALID,0.826672,
2004-07-02, 02:28:01,VALID,916.905,VALID,0,VALID,100,VALID,0,VALID,18.9388,VALID,13,VALID,0.857558,
2004-07-02, 02:29:01,VALID,916.886,VALID,0,VALID,100,VALID,0,VALID,18.9291,VALID,11,VALID,0.833519,
2004-07-02, 02:30:01,VALID,916.871,VALID,0,VALID,100,VALID,0,VALID,18.9197,VALID,16,VALID,0.797057,
2004-07-02, 02:31:01,VALID,916.882,VALID,0,VALID,100,VALID,0,VALID,18.9135,VALID,13,VALID,0.443859,
2004-07-02, 02:32:01,VALID,916.878,VALID,0,VALID,100,VALID,-0.0339617,VALID,18.9097,VALID,13,VALID,0.41441,
2004-07-02, 02:33:01,VALID,916.869,VALID,0,VALID,100,VALID,-0.0849042,VALID,18.9234,VALID,3,VALID,0.471354,
2004-07-02, 02:34:01,VALID,916.87,VALID,0,VALID,100,VALID,-0.0169808,VALID,18.8874,VALID,2,VALID,1.12046,
2004-07-02, 02:35:01,VALID,916.884,VALID,0,VALID,100,VALID,-0.0849042,VALID,18.8782,VALID,360,VALID,1.54082,
2004-07-02, 02:36:01,VALID,916.906,VALID,0,VALID,100,VALID,-0.0339617,VALID,18.8583,VALID,5,VALID,0.979936,
2004-07-02, 02:37:01,VALID,916.911,VALID,0,VALID,100,VALID,0,VALID,18.8675,VALID,25,VALID,0.516183,
2004-07-02, 02:38:00,VALID,916.915,VALID,0,VALID,100,VALID,0,VALID,18.8606,VALID,24,VALID,0.552689,
2004-07-02, 02:39:00,VALID,916.922,VALID,0,VALID,100,VALID,-0.0339617,VALID,18.8742,VALID,23,VALID,0.275347,
2004-07-02, 02:40:00,VALID,916.918,VALID,0,VALID,100,VALID,0,VALID,18.8814,VALID,13,VALID,0.764323,
2004-07-02, 02:41:00,VALID,916.9,VALID,0,VALID,100,VALID,-0.0169808,VALID,18.8551,VALID,11,VALID,1.05878,
2004-07-02, 02:42:00,VALID,916.902,VALID,0,VALID,100,VALID,-0.0169808,VALID,18.8524,VALID,344,VALID,0.982088,
2004-07-02, 02:43:00,VALID,916.88,VALID,0,VALID,100,VALID,-0.0169808,VALID,18.8524,VALID,6,VALID,0.794034,
2004-07-02, 02:44:00,VALID,916.863,VALID,0,VALID,100,VALID,-0.0169808,VALID,18.8519,VALID,17,VALID,0.874479,
2004-07-02, 02:45:00,VALID,916.826,VALID,0,VALID,100,VALID,0,VALID,18.8486,VALID,15,VALID,0.807528,
2004-07-02, 02:46:00,VALID,916.788,VALID,0,VALID,100,VALID,-0.0509425,VALID,18.842,VALID,11,VALID,1.08166,
2004-07-02, 02:47:00,VALID,916.752,VALID,0,VALID,100,VALID,-0.0679233,VALID,18.8325,VALID,16,VALID,1.18608,
2004-07-02, 02:48:00,VALID,916.751,VALID,0,VALID,100,VALID,0,VALID,18.836,VALID,9,VALID,0.892485,
2004-07-02, 02:49:00,VALID,916.746,VALID,0,VALID,100,VALID,-0.0339617,VALID,18.8293,VALID,14,VALID,0.897017,
2004-07-02, 02:50:00,VALID,916.731,VALID,0,VALID,100,VALID,-0.0339617,VALID,18.8327,VALID,356,VALID,0.790396,
2004-07-02, 02:51:00,VALID,916.701,VALID,0,VALID,100,VALID,-0.0339617,VALID,18.8295,VALID,1,VALID,0.438408,
2004-07-02, 02:52:00,VALID,916.698,VALID,0,VALID,100,VALID,-0.0169808,VALID,18.8265,VALID,4,VALID,0.517493,
2004-07-02, 02:53:00,VALID,916.69,VALID,0,VALID,100,VALID,-0.0339617,VALID,18.8263,VALID,4,VALID,0.334484,
2004-07-02, 02:54:00,VALID,916.687,VALID,0,VALID,100,VALID,-0.0169808,VALID,18.8166,VALID,357,VALID,0.351017,
2004-07-02, 02:55:00,VALID,916.676,VALID,0,VALID,100,VALID,-0.0169808,VALID,18.833,VALID,356,VALID,0.194404,
2004-07-02, 02:56:00,VALID,916.651,VALID,0,VALID,100,VALID,0,VALID,18.8327,VALID,356,VALID,0,
2004-07-02, 02:57:00,VALID,916.62,VALID,0,VALID,100,VALID,-0.0509425,VALID,18.8164,VALID,356,VALID,0,
2004-07-02, 02:58:00,VALID,916.601,VALID,0,VALID,100,VALID,0,VALID,18.833,VALID,356,VALID,0.0612981,
2004-07-02, 02:59:00,VALID,916.601,VALID,0,VALID,100,VALID,0,VALID,18.8231,VALID,356,VALID,0.0375,
2004-07-02, 03:00:00,VALID,916.557,VALID,0,VALID,100,VALID,-0.0169808,VALID,18.8258,VALID,356,VALID,0,
2004-07-02, 03:01:00,VALID,916.549,VALID,0,VALID,100,VALID,-0.0169808,VALID,18.8327,VALID,356,VALID,0,
2004-07-02, 03:02:00,VALID,916.531,VALID,0,VALID,100,VALID,-0.0509425,VALID,18.8293,VALID,356,VALID,0,
2004-07-02, 03:03:00,VALID,916.52,VALID,0,VALID,100,VALID,-0.0509425,VALID,18.8198,VALID,356,VALID,0,
2004-07-02, 03:04:00,VALID,916.502,VALID,0,VALID,100,VALID,0,VALID,18.8166,VALID,9,VALID,0.190799,
2004-07-02, 03:05:00,VALID,916.48,VALID,0,VALID,100,VALID,-0.0509425,VALID,18.7908,VALID,88,VALID,0.524182,
2004-07-02, 03:06:00,VALID,916.468,VALID,0,VALID,100,VALID,-0.0849042,VALID,18.7751,VALID,103,VALID,0.484184,
2004-07-02, 03:07:00,VALID,916.432,VALID,0,VALID,100,VALID,0,VALID,18.7684,VALID,105,VALID,0.400195,
2004-07-02, 03:08:00,VALID,916.42,VALID,0,VALID,100,VALID,-0.0339617,VALID,18.7622,VALID,108,VALID,0.476563,
2004-07-02, 03:09:00,VALID,916.398,VALID,0,VALID,100,VALID,-0.0169808,VALID,18.7555,VALID,108,VALID,0.39897,
2004-07-02, 03:10:00,VALID,916.38,VALID,0,VALID,100,VALID,-0.0169808,VALID,18.7486,VALID,108,VALID,0.379542,
2004-07-02, 03:11:00,VALID,916.386,VALID,0,VALID,100,VALID,-0.0679233,VALID,18.7424,VALID,108,VALID,0.131055,
2004-07-02, 03:12:00,VALID,916.386,VALID,0,VALID,100,VALID,-0.0339617,VALID,18.7493,VALID,108,VALID,0.00817587,
2004-07-02, 03:13:00,VALID,916.368,VALID,0,VALID,100,VALID,-0.0679233,VALID,18.7357,VALID,108,VALID,0.198103,
2004-07-02, 03:14:00,VALID,916.374,VALID,0,VALID,100,VALID,-0.0339617,VALID,18.7262,VALID,108,VALID,0.263021,
2004-07-02, 03:15:00,VALID,916.387,VALID,0,VALID,100,VALID,-0.0339617,VALID,18.7195,VALID,108,VALID,0.0963542,
2004-07-02, 03:16:00,VALID,916.4,VALID,0,VALID,100,VALID,-0.0169808,VALID,18.7232,VALID,108,VALID,0.421148,
2004-07-02, 03:17:00,VALID,916.387,VALID,0,VALID,100,VALID,-0.0339617,VALID,18.6875,VALID,101,VALID,0.473011,
2004-07-02, 03:18:00,VALID,916.373,VALID,0,VALID,100,VALID,-0.0339617,VALID,18.685,VALID,61,VALID,0.502725,
2004-07-02, 03:19:00,VALID,916.363,VALID,0,VALID,100,VALID,-0.0509425,VALID,18.6783,VALID,61,VALID,0.489769,
2004-07-02, 03:20:00,VALID,916.349,VALID,0,VALID,100,VALID,-0.0169808,VALID,18.6681,VALID,61,VALID,0.476563,
2004-07-02, 03:21:00,VALID,916.327,VALID,0,VALID,100,VALID,-0.0509425,VALID,18.6554,VALID,92,VALID,0.712536,
2004-07-02, 03:22:00,VALID,916.303,VALID,0,VALID,100,VALID,-0.0509425,VALID,18.6458,VALID,103,VALID,0.80221,
2004-07-02, 03:23:00,VALID,916.292,VALID,0,VALID,100,VALID,-0.0679233,VALID,18.6321,VALID,111,VALID,0.839749,
2004-07-02, 03:24:00,VALID,916.271,VALID,0,VALID,100,VALID,-0.0169808,VALID,18.6326,VALID,124,VALID,1.02344,
2004-07-02, 03:25:00,VALID,916.243,VALID,0,VALID,100,VALID,-0.0169808,VALID,18.6331,VALID,139,VALID,1.16406,
2004-07-02, 03:26:00,VALID,916.199,VALID,0,VALID,100,VALID,-0.0169808,VALID,18.6356,VALID,137,VALID,1.17727,
2004-07-02, 03:27:00,VALID,916.179,VALID,0,VALID,100,VALID,-0.0169808,VALID,18.6291,VALID,143,VALID,0.87686,
2004-07-02, 03:28:00,VALID,916.153,VALID,0,VALID,100,VALID,-0.0169808,VALID,18.6326,VALID,131,VALID,0.804688,
2004-07-02, 03:29:00,VALID,916.126,VALID,0,VALID,100,VALID,-0.0339617,VALID,18.6331,VALID,139,VALID,1.09938,
2004-07-02, 03:30:00,VALID,916.075,VALID,0,VALID,100,VALID,-0.0339617,VALID,18.6229,VALID,122,VALID,1.25586,
2004-07-02, 03:31:00,VALID,916.056,VALID,0,VALID,100,VALID,0,VALID,18.6423,VALID,114,VALID,0.894055,
2004-07-02, 03:32:00,VALID,916.031,VALID,0,VALID,100,VALID,-0.0339617,VALID,18.6391,VALID,106,VALID,0.903245,
2004-07-02, 03:33:00,VALID,916.004,VALID,0,VALID,100,VALID,-0.0339617,VALID,18.6495,VALID,99,VALID,0.719105,
2004-07-02, 03:34:00,VALID,915.992,VALID,0,VALID,100,VALID,-0.0169808,VALID,18.6358,VALID,76,VALID,0.615945,
2004-07-02, 03:35:00,VALID,915.987,VALID,0,VALID,100,VALID,-0.0169808,VALID,18.6393,VALID,108,VALID,0.802269,
2004-07-02, 03:36:00,VALID,915.939,VALID,0,VALID,100,VALID,-0.0169808,VALID,18.652,VALID,122,VALID,0.736192,
2004-07-02, 03:37:00,VALID,915.92,VALID,0,VALID,100,VALID,0,VALID,18.652,VALID,111,VALID,0.888086,
2004-07-02, 03:38:00,VALID,915.937,VALID,0,VALID,100,VALID,0,VALID,18.6651,VALID,107,VALID,0.374619,
2004-07-02, 03:39:00,VALID,915.906,VALID,0,VALID,100,VALID,0.0169808,VALID,18.658,VALID,104,VALID,0.870164,
2004-07-02, 03:40:00,VALID,915.883,VALID,0.2,VALID,100,VALID,0.0169808,VALID,18.6647,VALID,110,VALID,1.33538,
2004-07-02, 03:41:00,VALID,915.876,VALID,0,VALID,100,VALID,-0.0169808,VALID,18.6679,VALID,77,VALID,0.963914,
2004-07-02, 03:42:00,VALID,915.887,VALID,0,VALID,100,VALID,0.0169808,VALID,18.6907,VALID,73,VALID,0.938058,